[[{"header":{"parameterUnit":"m.s-1","parameterCategory":1,"la1":30.2991,"la2":30.254,"lo1":-89.0895,"lo2":-89.0444,"dy":0.0017,"dx":0.0017,"nx":28,"ny":28,"refTime":"2024-06-17T21:00:00:Z","depth":0,"parameterNumber":2,"parameterNumberName":"U-component_of_WINDS"},"data":[0,0,0,0,0,0,0,0,0,0,0,0,0,0,0,0,0,0,0,0,0,0,0,0,0,0,0,0,0,0,0,0,0,0,0,0,0,0,0,0,0,0,0,0,0,0,0,0,0,0,0,0,0,0,0,0,0,0,-9.8801,-9.8802,0,-9.8829,-9.8829,-9.883,-9.8639,-9.8634,-9.8629,-9.8624,-9.865,-9.8655,-9.8661,0,0,0,0,0,0,0,0,0,0,0,0,0,-9.858,-9.8585,-9.8801,-9.8802,-9.8802,-9.8829,-9.883,-9.883,-9.864,-9.8634,-9.8627,-9.8621,-9.8648,-9.8654,-9.8661,0,0,0,0,0,0,0,0,0,0,0,0,0,-9.8649,-9.8587,-9.8801,-9.8711,-9.8703,-9.8829,-9.883,-9.883,-9.8642,-9.8634,-9.8626,-9.8618,-9.8645,-9.8654,-9.8662,-9.8876,0,0,-9.8688,-9.8692,0,0,0,0,0,0,0,0,-9.8646,-9.8658,-9.8724,-9.8717,-9.8709,-9.8723,-9.8761,-9.8845,-9.8644,-9.8665,-9.8623,-9.8614,-9.868,-9.8685,-9.8708,-9.8877,-9.8878,-9.8689,-9.8694,-9.8698,-9.87,0,0,0,0,0,0,0,-9.8641,-9.8655,-9.8812,-9.8725,-9.8716,-9.8668,-9.8669,-9.8776,-9.8717,-9.8662,-9.8649,-9.8655,-9.8674,-9.87,-9.8707,-9.8878,-9.8689,-9.8696,-9.8702,-9.8705,-9.9222,-9.923,0,0,0,0,0,0,-9.8649,-9.8653,-9.8811,-9.8813,-9.8657,-9.8678,-9.8679,-9.8726,-9.8715,-9.8706,-9.8662,-9.8646,-9.869,-9.8698,-9.8708,-9.8954,-9.8698,-9.8706,-9.8711,-9.9213,-9.9224,-9.9233,0,0,0,0,0,0,-9.8645,-9.8665,-9.881,-9.8729,-9.8744,-9.8691,-9.8745,-9.8731,-9.8756,-9.8715,-9.8703,-9.8699,-9.8684,-9.8696,-9.8835,-9.8953,-9.871,-9.8717,-9.9203,-9.9216,-9.9228,-9.9452,0,0,0,0,0,0,-9.8639,-9.8665,-9.8746,-9.8732,-9.8749,-9.8938,-9.8752,-9.8737,-9.8772,-9.8752,-9.8747,-9.8738,-9.8678,-9.8823,-9.8844,-9.896,-9.8724,-9.9192,-9.9209,-9.9224,-9.9433,-9.9471,-9.9502,0,0,0,0,0,-9.8632,-9.8807,-9.8751,-9.8771,-9.885,-9.8946,-9.8955,-9.8883,-9.8783,-9.8863,-9.8836,-9.8738,-9.8938,-9.8839,-9.886,-9.8981,-9.9184,-9.9204,-9.9223,-9.9418,-9.9463,-9.9502,0,0,0,0,0,0,-9.8834,-9.8804,-9.8741,-9.8917,-9.8936,-9.8913,-9.9012,-9.8934,-9.898,-9.8959,-9.8867,-9.8868,-9.9022,-9.9016,-9.8907,-9.9186,-9.9043,-9.9068,-9.9184,-9.9227,-9.9261,-9.9257,-9.8731,0,0,0,0,0,-9.89,-9.8982,-9.895,-9.9109,-9.9121,-9.9066,-9.9105,-9.9049,-9.9063,-9.907,-9.9053,-9.9071,-9.9137,-9.9182,-9.9241,-9.9433,-9.9428,-9.9527,-9.9561,-9.959,-9.9611,-9.971,-9.9752,-9.9296,-9.9296,-9.9296,0,0,-9.9035,-9.9028,-9.9085,-9.9149,-9.9156,-9.9242,-9.9074,-9.9171,-9.9233,-9.9084,-9.9214,-9.9204,-9.9217,-9.9383,-9.9456,-9.9383,-9.9736,-9.9615,-9.9638,-9.9643,-9.9734,-9.9777,-9.9816,-9.931,-9.9307,-9.9305,0,0,-9.9324,-9.9329,-9.946,-9.9472,-9.9486,-9.9448,-9.9481,-9.9471,-9.9458,-9.9587,-9.9477,-9.955,-9.9666,-9.968,-9.9702,-9.9999,-9.9909,-10.0021,-10.0199,-10.0297,-10.0332,-10.0364,-10.0467,-10.0505,-10.0042,-10.0043,-10.0043,0,-9.9489,-9.9614,-9.9537,-9.9642,-9.9672,-9.9544,-9.9676,-9.969,-9.9723,-9.9747,-9.9665,-9.9808,-9.9809,-9.9975,-10.0048,-10.0071,-10.0103,-10.0018,-10.0334,-10.0365,-10.0392,-10.0489,-10.0529,-10.0056,-10.0055,-10.0053,-10.0052,0,-9.9815,-9.9904,-10.0008,-10.0044,-10.0087,-10.0205,-10.0145,-10.0197,-10.0138,-10.0109,-10.0242,-10.0238,-10.0293,-10.033,-10.0273,-10.0489,-10.0442,-10.035,-10.0203,-10.045,-10.054,-10.0576,-10.0075,-10.007,-10.0066,-10.0063,0,0,-10.0228,-10.0222,-10.0261,-10.0275,-10.0282,-10.0348,-10.0461,-10.0516,-10.0561,-10.0589,-10.0679,-10.0782,-10.0696,-10.0721,-10.0665,-10.0752,-10.0983,-10.0647,-10.0646,-10.0707,-10.1218,-10.1285,-10.1329,-10.0926,-10.0933,-10.0939,-10.1215,0,-10.0508,-10.0699,-10.0634,-10.0827,-10.0907,-10.0788,-10.0885,-10.09,-10.0877,-10.094,-10.0913,-10.0986,-10.0869,-10.0883,-10.0964,-10.0938,-10.1084,-10.0918,-10.1006,-10.101,-10.1002,-10.1376,-10.1447,-10.1709,-10.125,-10.1256,-10.1261,0,-10.0858,-10.0901,-10.1103,-10.1096,-10.1127,-10.1216,-10.126,-10.1324,-10.1338,-10.1314,-10.1345,-10.127,-10.1378,-10.1235,-10.1382,-10.127,-10.1303,-10.1297,-10.1305,-10.1307,-10.1147,-10.1385,-10.1791,-10.1829,-10.1315,-10.1311,-10.1307,0,-10.1135,-10.1243,-10.1377,-10.1394,-10.139,-10.1455,-10.1456,-10.1463,-10.15,-10.1539,-10.1562,-10.1614,-10.1642,-10.1683,-10.1624,-10.1526,-10.1779,-10.1632,-10.176,-10.1762,-10.1815,-10.1811,-10.2228,-10.1844,-10.1844,-10.1843,-10.1842,0,-10.1451,-10.1578,-10.1501,-10.1584,-10.1723,-10.1647,-10.1787,-10.1775,-10.1782,-10.1859,-10.176,-10.1834,-10.1754,-10.182,-10.1776,-10.1902,-10.1916,-10.1899,-10.1885,-10.1906,-10.1907,-10.1922,-10.1901,-10.1853,-10.1851,-10.1849,-10.1847,0,-10.1781,-10.1735,-10.1873,-10.186,-10.1859,-10.1962,-10.1949,-10.2024,-10.1995,-10.2094,-10.2113,-10.2067,-10.214,-10.2086,-10.2159,-10.2129,-10.2295,-10.2257,-10.229,-10.2278,-10.2408,-10.2395,-10.2845,-10.2899,-10.2485,-10.2489,-10.2493,0,-10.1984,-10.2079,-10.2076,-10.2121,-10.2129,-10.2203,-10.224,-10.2171,-10.2214,-10.2238,-10.231,-10.2375,-10.2422,-10.2545,-10.2517,-10.2572,-10.2532,-10.2687,-10.254,-10.2557,-10.253,-10.2524,-10.2531,-10.2715,-10.272,-10.2724,-10.2727,0,-10.2347,-10.232,-10.2378,-10.243,-10.2478,-10.2515,-10.2543,-10.2586,-10.2515,-10.2569,-10.2643,-10.268,-10.2755,-10.282,-10.2865,-10.2865,-10.2784,-10.2775,-10.2806,-10.2826,-10.284,-10.283,-10.2366,-10.2763,-10.276,-10.2757,-10.2755,-10.2754,-10.2616,-10.2695,-10.2705,-10.2773,-10.2788,-10.2818,-10.2887,-10.2868,-10.2928,-10.2984,-10.294,-10.3028,-10.3039,-10.3092,-10.3102,-10.3169,-10.3105,-10.3153,-10.3164,-10.3176,-10.3192,-10.2834,-10.3178,-10.3177,-10.3176,-10.3175,-10.3174,0,-10.2971,-10.2972,-10.3036,-10.308,-10.3134,-10.3056,-10.3084,-10.3134,-10.3213,-10.3231,-10.3281,-10.3366,-10.3429,-10.3408,-10.3463,-10.3521,-10.3485,-10.3538,-10.353,-10.3531,-10.3248,-10.3213,-10.3565,-10.3565,-10.3565,-10.3565,-10.3565,-10.3565,-10.3161,-10.3289,-10.3264,-10.3398,-10.3398,-10.3484,-10.3507,-10.3533,-10.3547,-10.3646,-10.3699,-10.3685,-10.3687,-10.3742,-10.3796,-10.3788,-10.3812,-10.3877,-10.3855,-10.359,-10.3551,-10.3514,-10.3481,-10.3884,-10.3884,-10.4132,-10.4134,-10.4136]},{"header":{"parameterUnit":"m.s-1","parameterCategory":1,"la1":30.2991,"la2":30.254,"lo1":-89.0895,"lo2":-89.0444,"dy":0.0017,"dx":0.0017,"nx":28,"ny":28,"refTime":"2024-06-17T21:00:00:Z","depth":0,"parameterNumber":3,"parameterNumberName":"V-component_of_WINDS"},"data":[0,0,0,0,0,0,0,0,0,0,0,0,0,0,0,0,0,0,0,0,0,0,0,0,0,0,0,0,0,0,0,0,0,0,0,0,0,0,0,0,0,0,0,0,0,0,0,0,0,0,0,0,0,0,0,0,0,0,1.1278,1.1278,0,1.13,1.13,1.13,1.1324,1.1325,1.1325,1.1326,1.1344,1.1344,1.1344,0,0,0,0,0,0,0,0,0,0,0,0,0,1.1255,1.1256,1.1278,1.1278,1.1279,1.13,1.13,1.13,1.1324,1.1325,1.1325,1.1326,1.1344,1.1344,1.1344,0,0,0,0,0,0,0,0,0,0,0,0,0,1.127,1.1256,1.1278,1.1293,1.1295,1.13,1.13,1.13,1.1324,1.1325,1.1325,1.1326,1.1344,1.1344,1.1344,1.1335,0,0,1.1345,1.1345,0,0,0,0,0,0,0,0,1.1269,1.1271,1.1291,1.1292,1.1294,1.131,1.1299,1.1312,1.1324,1.1313,1.1326,1.1326,1.1332,1.1333,1.1336,1.1336,1.1337,1.1345,1.1345,1.1345,1.1345,0,0,0,0,0,0,0,1.1268,1.127,1.1287,1.1291,1.1293,1.1298,1.1301,1.1302,1.1319,1.1314,1.1316,1.1318,1.1333,1.1336,1.1337,1.1337,1.1345,1.1345,1.1346,1.1346,1.1332,1.1331,0,0,0,0,0,0,1.1265,1.1269,1.1286,1.1287,1.1283,1.1298,1.1301,1.1304,1.1319,1.1322,1.1318,1.1319,1.1335,1.1336,1.1337,1.1328,1.1345,1.1346,1.1346,1.1332,1.1331,1.1331,0,0,0,0,0,0,1.1264,1.1266,1.1285,1.1279,1.1281,1.1298,1.1301,1.1304,1.1307,1.1322,1.1325,1.1318,1.1336,1.1337,1.1336,1.1329,1.1346,1.1346,1.1333,1.1332,1.1331,1.1309,0,0,0,0,0,0,1.1264,1.1266,1.1263,1.1278,1.1282,1.1284,1.1301,1.1304,1.1308,1.131,1.1323,1.1325,1.1336,1.1336,1.1336,1.133,1.1346,1.1333,1.1332,1.1331,1.1311,1.1308,1.1305,0,0,0,0,0,1.1263,1.1255,1.1263,1.1264,1.1278,1.1283,1.1285,1.1299,1.1307,1.1304,1.1314,1.1325,1.133,1.1335,1.1336,1.133,1.1334,1.1333,1.1331,1.1312,1.1308,1.1305,0,0,0,0,0,0,1.1236,1.1257,1.1266,1.1263,1.1271,1.1287,1.1284,1.1295,1.13,1.1302,1.1318,1.132,1.1317,1.1323,1.1329,1.1322,1.1334,1.1332,1.1318,1.1315,1.1312,1.1311,1.1346,0,0,0,0,0,1.123,1.1233,1.1251,1.1246,1.1251,1.1266,1.1269,1.1279,1.1288,1.1292,1.1301,1.1309,1.1312,1.1314,1.1318,1.1312,1.1315,1.1308,1.1305,1.1303,1.1302,1.13,1.1297,1.1327,1.1327,1.1327,0,0,1.1217,1.1229,1.123,1.1241,1.1249,1.1252,1.1269,1.1271,1.1273,1.1291,1.1292,1.1299,1.1308,1.1305,1.1304,1.131,1.1295,1.1302,1.13,1.13,1.1299,1.1296,1.1293,1.1326,1.1326,1.1327,0,0,1.1195,1.1204,1.1202,1.121,1.1223,1.1234,1.1233,1.1248,1.1255,1.1255,1.127,1.1272,1.1278,1.1284,1.1288,1.1271,1.1281,1.1272,1.1258,1.1256,1.1253,1.1251,1.1246,1.1243,1.127,1.127,1.127,0,1.1177,1.1182,1.1199,1.1201,1.1206,1.1225,1.1223,1.1229,1.1242,1.1245,1.1252,1.126,1.1268,1.1267,1.1263,1.1265,1.1265,1.127,1.1253,1.1251,1.1249,1.1244,1.1241,1.1269,1.1269,1.1269,1.127,0,1.116,1.1163,1.116,1.1174,1.1178,1.1178,1.1194,1.1197,1.1207,1.1217,1.1218,1.1229,1.1236,1.1236,1.1245,1.1237,1.1241,1.125,1.1261,1.1245,1.124,1.1238,1.1268,1.1268,1.1268,1.1269,0,0,1.1119,1.1144,1.1143,1.115,1.1166,1.1169,1.117,1.1178,1.118,1.1188,1.1189,1.1195,1.1204,1.1209,1.1219,1.1217,1.1204,1.1227,1.1228,1.1223,1.1196,1.1189,1.1186,1.1211,1.1211,1.1211,1.1195,0,1.11,1.1104,1.112,1.1119,1.1122,1.1142,1.1143,1.1152,1.1162,1.1166,1.1177,1.1181,1.1193,1.1196,1.1195,1.1206,1.1199,1.1207,1.1212,1.1212,1.1209,1.1184,1.1176,1.116,1.1193,1.1193,1.1193,0,1.1077,1.1087,1.1086,1.1104,1.1106,1.1107,1.1117,1.1121,1.1132,1.114,1.1146,1.1158,1.116,1.1172,1.1174,1.118,1.1183,1.1188,1.1188,1.1188,1.1201,1.1183,1.1156,1.1153,1.119,1.119,1.119,0,1.1049,1.1061,1.1063,1.1068,1.1089,1.1089,1.1097,1.1109,1.1114,1.1122,1.1126,1.1133,1.1138,1.1143,1.1158,1.1165,1.1159,1.1171,1.1164,1.1164,1.1162,1.1161,1.1134,1.1164,1.1164,1.1164,1.1164,0,1.1025,1.1024,1.105,1.1051,1.1051,1.107,1.1068,1.1079,1.109,1.1093,1.111,1.1112,1.1131,1.1135,1.1146,1.1147,1.1148,1.1154,1.1157,1.1153,1.1152,1.1154,1.1156,1.1163,1.1163,1.1164,1.1164,0,1.0993,1.101,1.1013,1.1034,1.1039,1.1037,1.1054,1.1056,1.1068,1.1071,1.1073,1.1091,1.1098,1.1113,1.1122,1.113,1.1128,1.1133,1.1124,1.1126,1.1118,1.1119,1.1091,1.1089,1.112,1.112,1.112,0,1.0976,1.0976,1.0997,1.1002,1.101,1.1016,1.1021,1.104,1.1045,1.106,1.1059,1.1067,1.1075,1.1083,1.1097,1.1104,1.111,1.11,1.1111,1.1107,1.111,1.111,1.111,1.1097,1.1097,1.1096,1.1096,0,1.0946,1.0955,1.0963,1.0974,1.0981,1.099,1.1001,1.1003,1.1024,1.1029,1.1036,1.1042,1.1053,1.1061,1.1071,1.1079,1.1091,1.1093,1.1092,1.1087,1.1082,1.1085,1.1117,1.1093,1.1093,1.1094,1.1094,1.1094,1.0921,1.0923,1.0938,1.0947,1.0957,1.0967,1.097,1.0983,1.099,1.1002,1.1012,1.1019,1.1032,1.1047,1.1054,1.1059,1.1065,1.1064,1.1063,1.1062,1.1061,1.1082,1.1061,1.1061,1.1061,1.1061,1.1062,0,1.0892,1.0903,1.0911,1.0926,1.0933,1.0946,1.0959,1.0963,1.0969,1.0981,1.0989,1.0998,1.1006,1.1021,1.103,1.1031,1.1037,1.1033,1.1033,1.1035,1.1054,1.1055,1.1028,1.1028,1.1028,1.1028,1.1028,1.1028,1.0877,1.0881,1.0892,1.0901,1.0913,1.0921,1.0927,1.0936,1.0946,1.0956,1.0963,1.0973,1.0986,1.0997,1.1005,1.1009,1.1012,1.1006,1.1012,1.103,1.1033,1.1036,1.1036,1.1006,1.1006,1.0991,1.0991,1.0991]}]]